Time,TemperatureF,DewpointF,PressureIn,WindDirection,WindDirectionDegrees,WindSpeedMPH,WindSpeedGustMPH,Humidity,HourlyPrecipIn,Conditions,Clouds,dailyrainin,SoftwareType,DateUTC
2013-09-14 00:00:00,60.6,52.6,29.83,NW,318,7.0,8.0,75,0.00,,,0.00,Wunderground v.1.15,2013-09-14 04:00:00,
2013-09-14 00:05:00,60.4,52.4,29.83,WNW,294,7.0,8.0,75,0.00,,,0.00,Wunderground v.1.15,2013-09-14 04:05:00,
2013-09-14 00:10:00,60.3,52.3,29.83,NW,309,8.0,8.0,75,0.00,,,0.00,Wunderground v.1.15,2013-09-14 04:10:00,
2013-09-14 00:15:00,60.2,52.2,29.83,NNW,327,8.0,8.0,75,0.00,,,0.00,Wunderground v.1.15,2013-09-14 04:15:00,
2013-09-14 00:20:00,60.1,52.5,29.83,NW,318,7.0,7.0,76,0.00,,,0.00,Wunderground v.1.15,2013-09-14 04:20:00,
2013-09-14 00:25:00,59.9,52.3,29.83,NNW,328,6.0,7.0,76,0.00,,,0.00,Wunderground v.1.15,2013-09-14 04:25:00,
2013-09-14 00:30:00,59.7,52.5,29.83,WNW,302,6.0,13.0,77,0.00,,,0.00,Wunderground v.1.15,2013-09-14 04:30:00,
2013-09-14 00:35:00,59.6,52.4,29.83,NW,326,8.0,13.0,77,0.00,,,0.00,Wunderground v.1.15,2013-09-14 04:35:00,
2013-09-14 00:40:00,59.4,52.2,29.83,NNW,342,8.0,8.0,77,0.00,,,0.00,Wunderground v.1.15,2013-09-14 04:40:00,
2013-09-14 00:45:00,59.3,51.7,29.84,NNW,330,8.0,8.0,76,0.00,,,0.00,Wunderground v.1.15,2013-09-14 04:45:00,
2013-09-14 00:55:00,59.1,52.2,29.84,WNW,300,8.0,9.0,78,0.00,,,0.00,Wunderground v.1.15,2013-09-14 04:55:00,
2013-09-14 01:00:00,59.0,51.8,29.84,NW,315,8.0,8.0,77,0.00,,,0.00,Wunderground v.1.15,2013-09-14 05:00:00,
2013-09-14 01:05:00,58.8,52.0,29.84,NW,321,7.0,8.0,78,0.00,,,0.00,Wunderground v.1.15,2013-09-14 05:05:00,
2013-09-14 01:10:00,58.7,51.5,29.84,NW,318,7.0,7.0,77,0.00,,,0.00,Wunderground v.1.15,2013-09-14 05:10:00,
2013-09-14 01:15:00,58.6,51.4,29.85,NW,305,7.0,8.0,77,0.00,,,0.00,Wunderground v.1.15,2013-09-14 05:15:00,
2013-09-14 01:20:00,58.5,51.3,29.85,NNW,339,7.0,7.0,77,0.00,,,0.00,Wunderground v.1.15,2013-09-14 05:20:00,
2013-09-14 01:25:00,58.4,51.6,29.85,NW,312,7.0,8.0,78,0.00,,,0.00,Wunderground v.1.15,2013-09-14 05:25:00,
2013-09-14 01:30:00,58.3,51.5,29.85,NW,326,6.0,8.0,78,0.00,,,0.00,Wunderground v.1.15,2013-09-14 05:30:00,
2013-09-14 01:35:00,58.3,51.5,29.85,NNW,330,7.0,8.0,78,0.00,,,0.00,Wunderground v.1.15,2013-09-14 05:35:00,
2013-09-14 01:50:00,57.9,51.4,29.86,NW,325,6.0,6.0,79,0.00,,,0.00,Wunderground v.1.15,2013-09-14 05:50:00,
2013-09-14 01:55:00,57.6,51.1,29.86,NW,304,6.0,7.0,79,0.00,,,0.00,Wunderground v.1.15,2013-09-14 05:55:00,
2013-09-14 02:00:00,57.4,51.6,29.86,NW,304,6.0,6.0,81,0.00,,,0.00,Wunderground v.1.15,2013-09-14 06:00:00,
2013-09-14 02:05:00,57.2,51.4,29.86,NW,304,6.0,8.0,81,0.00,,,0.00,Wunderground v.1.15,2013-09-14 06:05:00,
2013-09-14 02:10:00,57.1,51.3,29.86,NW,307,5.0,5.0,81,0.00,,,0.00,Wunderground v.1.15,2013-09-14 06:10:00,
2013-09-14 02:15:00,56.9,51.5,29.86,NNW,335,6.0,6.0,82,0.00,,,0.00,Wunderground v.1.15,2013-09-14 06:15:00,
2013-09-14 02:20:00,56.8,51.4,29.86,NNW,348,6.0,7.0,82,0.00,,,0.00,Wunderground v.1.15,2013-09-14 06:20:00,
2013-09-14 02:30:00,56.7,51.3,29.86,NW,311,6.0,6.0,82,0.00,,,0.00,Wunderground v.1.15,2013-09-14 06:30:00,
2013-09-14 02:35:00,56.7,50.9,29.86,NW,318,6.0,6.0,81,0.00,,,0.00,Wunderground v.1.15,2013-09-14 06:35:00,
2013-09-14 02:40:00,56.6,50.8,29.86,NW,318,6.0,6.0,81,0.00,,,0.00,Wunderground v.1.15,2013-09-14 06:40:00,
2013-09-14 02:45:00,56.5,50.7,29.86,NW,318,6.0,6.0,81,0.00,,,0.00,Wunderground v.1.15,2013-09-14 06:45:00,
2013-09-14 02:50:00,56.6,50.8,29.86,NW,316,7.0,7.0,81,0.00,,,0.00,Wunderground v.1.15,2013-09-14 06:50:00,
2013-09-14 02:55:00,56.6,50.5,29.86,NNW,332,6.0,7.0,80,0.00,,,0.00,Wunderground v.1.15,2013-09-14 06:55:00,
2013-09-14 03:00:00,56.5,50.4,29.86,NW,322,6.0,6.0,80,0.00,,,0.00,Wunderground v.1.15,2013-09-14 07:00:00,
2013-09-14 03:05:00,56.4,50.6,29.86,NW,315,6.0,6.0,81,0.00,,,0.00,Wunderground v.1.15,2013-09-14 07:05:00,
2013-09-14 03:15:00,56.2,50.4,29.86,NW,324,4.0,5.0,81,0.00,,,0.00,Wunderground v.1.15,2013-09-14 07:15:00,
2013-09-14 03:20:00,56.1,50.3,29.86,NW,314,5.0,7.0,81,0.00,,,0.00,Wunderground v.1.15,2013-09-14 07:20:00,
2013-09-14 03:25:00,56.0,50.6,29.86,WNW,302,5.0,7.0,82,0.00,,,0.00,Wunderground v.1.15,2013-09-14 07:25:00,
2013-09-14 03:30:00,55.9,50.2,29.86,NNW,333,6.0,8.0,81,0.00,,,0.00,Wunderground v.1.15,2013-09-14 07:30:00,
2013-09-14 03:35:00,55.8,50.4,29.86,NW,325,6.0,8.0,82,0.00,,,0.00,Wunderground v.1.15,2013-09-14 07:35:00,
2013-09-14 03:40:00,55.7,50.3,29.87,NNW,332,6.0,6.0,82,0.00,,,0.00,Wunderground v.1.15,2013-09-14 07:40:00,
2013-09-14 03:45:00,55.7,50.3,29.87,NW,316,5.0,7.0,82,0.00,,,0.00,Wunderground v.1.15,2013-09-14 07:45:00,
2013-09-14 03:55:00,55.5,50.1,29.87,NW,306,6.0,10.0,82,0.00,,,0.00,Wunderground v.1.15,2013-09-14 07:55:00,
2013-09-14 04:05:00,55.4,50.0,29.87,WNW,300,6.0,6.0,82,0.00,,,0.00,Wunderground v.1.15,2013-09-14 08:05:00,
2013-09-14 04:10:00,55.3,49.9,29.88,WNW,302,5.0,5.0,82,0.00,,,0.00,Wunderground v.1.15,2013-09-14 08:10:00,
2013-09-14 04:15:00,55.1,49.7,29.88,NW,319,5.0,5.0,82,0.00,,,0.00,Wunderground v.1.15,2013-09-14 08:15:00,
2013-09-14 04:20:00,55.0,49.6,29.88,NNW,330,5.0,5.0,82,0.00,,,0.00,Wunderground v.1.15,2013-09-14 08:20:00,
2013-09-14 04:25:00,54.9,49.8,29.88,WNW,302,5.0,7.0,83,0.00,,,0.00,Wunderground v.1.15,2013-09-14 08:25:00,
2013-09-14 04:30:00,54.8,49.7,29.88,WNW,289,5.0,7.0,83,0.00,,,0.00,Wunderground v.1.15,2013-09-14 08:30:00,
2013-09-14 04:35:00,54.7,49.6,29.88,NW,312,5.0,7.0,83,0.00,,,0.00,Wunderground v.1.15,2013-09-14 08:35:00,
2013-09-14 04:45:00,54.5,49.8,29.88,WNW,285,4.0,8.0,84,0.00,,,0.00,Wunderground v.1.15,2013-09-14 08:45:00,
2013-09-14 04:50:00,54.3,49.6,29.88,NW,311,4.0,4.0,84,0.00,,,0.00,Wunderground v.1.15,2013-09-14 08:50:00,
2013-09-14 04:55:00,54.3,49.6,29.89,NW,312,4.0,4.0,84,0.00,,,0.00,Wunderground v.1.15,2013-09-14 08:55:00,
2013-09-14 05:00:00,54.1,49.4,29.89,NW,311,4.0,4.0,84,0.00,,,0.00,Wunderground v.1.15,2013-09-14 09:00:00,
2013-09-14 05:05:00,54.1,49.7,29.89,NW,305,4.0,4.0,85,0.00,,,0.00,Wunderground v.1.15,2013-09-14 09:05:00,
2013-09-14 05:10:00,54.0,49.3,29.89,NW,319,4.0,6.0,84,0.00,,,0.00,Wunderground v.1.15,2013-09-14 09:10:00,
2013-09-14 05:15:00,54.0,49.6,29.89,NW,318,4.0,6.0,85,0.00,,,0.00,Wunderground v.1.15,2013-09-14 09:15:00,
2013-09-14 05:20:00,54.0,49.6,29.89,NW,322,4.0,4.0,85,0.00,,,0.00,Wunderground v.1.15,2013-09-14 09:20:00,
2013-09-14 05:30:00,53.8,49.4,29.90,NW,304,4.0,4.0,85,0.00,,,0.00,Wunderground v.1.15,2013-09-14 09:30:00,
2013-09-14 05:35:00,53.8,49.4,29.90,WNW,297,4.0,6.0,85,0.00,,,0.00,Wunderground v.1.15,2013-09-14 09:35:00,
2013-09-14 05:40:00,53.7,49.3,29.90,NW,305,4.0,7.0,85,0.00,,,0.00,Wunderground v.1.15,2013-09-14 09:40:00,
2013-09-14 05:45:00,53.6,49.2,29.90,WNW,300,5.0,7.0,85,0.00,,,0.00,Wunderground v.1.15,2013-09-14 09:45:00,
2013-09-14 05:50:00,53.6,49.5,29.90,NW,319,4.0,5.0,86,0.00,,,0.00,Wunderground v.1.15,2013-09-14 09:50:00,
2013-09-14 05:55:00,53.4,49.3,29.90,NW,309,4.0,6.0,86,0.00,,,0.00,Wunderground v.1.15,2013-09-14 09:55:00,
2013-09-14 06:00:00,53.3,49.2,29.90,WNW,300,4.0,7.0,86,0.00,,,0.00,Wunderground v.1.15,2013-09-14 10:00:00,
2013-09-14 06:10:00,53.2,49.1,29.91,NW,314,4.0,4.0,86,0.00,,,0.00,Wunderground v.1.15,2013-09-14 10:10:00,
2013-09-14 06:15:00,53.2,49.1,29.91,NW,316,4.0,4.0,86,0.00,,,0.00,Wunderground v.1.15,2013-09-14 10:15:00,
2013-09-14 06:20:00,53.1,49.0,29.91,NNW,329,3.0,5.0,86,0.00,,,0.00,Wunderground v.1.15,2013-09-14 10:20:00,
2013-09-14 06:25:00,53.1,49.0,29.91,NW,313,4.0,5.0,86,0.00,,,0.00,Wunderground v.1.15,2013-09-14 10:25:00,
2013-09-14 06:30:00,52.9,48.8,29.91,NNW,327,4.0,4.0,86,0.00,,,0.00,Wunderground v.1.15,2013-09-14 10:30:00,
2013-09-14 06:35:00,52.9,49.1,29.91,NW,322,4.0,5.0,87,0.00,,,0.00,Wunderground v.1.15,2013-09-14 10:35:00,
2013-09-14 06:40:00,52.9,48.8,29.91,NNW,328,4.0,5.0,86,0.00,,,0.00,Wunderground v.1.15,2013-09-14 10:40:00,
2013-09-14 06:45:00,52.9,48.8,29.92,WNW,302,4.0,6.0,86,0.00,,,0.00,Wunderground v.1.15,2013-09-14 10:45:00,
2013-09-14 06:50:00,53.0,48.9,29.92,NW,305,4.0,5.0,86,0.00,,,0.00,Wunderground v.1.15,2013-09-14 10:50:00,
2013-09-14 06:55:00,53.1,49.0,29.92,NNW,335,4.0,5.0,86,0.00,,,0.00,Wunderground v.1.15,2013-09-14 10:55:00,
2013-09-14 07:05:00,53.6,49.2,29.92,NW,318,4.0,4.0,85,0.00,,,0.00,Wunderground v.1.15,2013-09-14 11:05:00,
2013-09-14 07:10:00,53.8,49.1,29.93,NW,317,5.0,6.0,84,0.00,,,0.00,Wunderground v.1.15,2013-09-14 11:10:00,
2013-09-14 07:15:00,53.9,48.9,29.93,NW,304,5.0,6.0,83,0.00,,,0.00,Wunderground v.1.15,2013-09-14 11:15:00,
2013-09-14 07:20:00,54.1,49.1,29.93,WNW,302,6.0,6.0,83,0.00,,,0.00,Wunderground v.1.15,2013-09-14 11:20:00,
2013-09-14 07:25:00,54.4,49.3,29.93,NW,319,6.0,6.0,83,0.00,,,0.00,Wunderground v.1.15,2013-09-14 11:25:00,
2013-09-14 07:30:00,54.5,49.1,29.93,NNW,333,6.0,7.0,82,0.00,,,0.00,Wunderground v.1.15,2013-09-14 11:30:00,
2013-09-14 07:35:00,54.7,49.0,29.93,WNW,297,6.0,7.0,81,0.00,,,0.00,Wunderground v.1.15,2013-09-14 11:35:00,
2013-09-14 07:45:00,55.3,49.9,29.93,NNW,328,6.0,8.0,82,0.00,,,0.00,Wunderground v.1.15,2013-09-14 11:45:00,
2013-09-14 07:50:00,55.3,49.2,29.93,NW,309,6.0,7.0,80,0.00,,,0.00,Wunderground v.1.15,2013-09-14 11:50:00,
2013-09-14 07:55:00,55.3,49.2,29.93,NW,311,6.0,7.0,80,0.00,,,0.00,Wunderground v.1.15,2013-09-14 11:55:00,
2013-09-14 08:00:00,55.5,49.4,29.93,WNW,294,6.0,6.0,80,0.00,,,0.00,Wunderground v.1.15,2013-09-14 12:00:00,
2013-09-14 08:05:00,55.8,49.4,29.93,NW,314,6.0,8.0,79,0.00,,,0.00,Wunderground v.1.15,2013-09-14 12:05:00,
2013-09-14 08:10:00,56.0,49.9,29.93,NNW,327,7.0,7.0,80,0.00,,,0.00,Wunderground v.1.15,2013-09-14 12:10:00,
2013-09-14 08:15:00,56.1,49.3,29.93,NW,317,8.0,9.0,78,0.00,,,0.00,Wunderground v.1.15,2013-09-14 12:15:00,
2013-09-14 08:20:00,56.3,49.5,29.94,NNW,333,7.0,7.0,78,0.00,,,0.00,Wunderground v.1.15,2013-09-14 12:20:00,
2013-09-14 08:30:00,56.5,49.4,29.94,NNW,336,6.0,8.0,77,0.00,,,0.00,Wunderground v.1.15,2013-09-14 12:30:00,
2013-09-14 08:35:00,56.6,49.5,29.94,WNW,291,6.0,10.0,77,0.00,,,0.00,Wunderground v.1.15,2013-09-14 12:35:00,
2013-09-14 08:40:00,56.6,49.5,29.94,NW,311,7.0,7.0,77,0.00,,,0.00,Wunderground v.1.15,2013-09-14 12:40:00,
2013-09-14 08:45:00,56.8,49.3,29.95,NW,323,7.0,7.0,76,0.00,,,0.00,Wunderground v.1.15,2013-09-14 12:45:00,
2013-09-14 08:50:00,56.9,49.4,29.95,WNW,297,6.0,6.0,76,0.00,,,0.00,Wunderground v.1.15,2013-09-14 12:50:00,
2013-09-14 08:55:00,57.1,49.6,29.95,NW,316,7.0,7.0,76,0.00,,,0.00,Wunderground v.1.15,2013-09-14 12:55:00,
2013-09-14 09:00:00,57.1,48.9,29.95,NW,324,7.0,8.0,74,0.00,,,0.00,Wunderground v.1.15,2013-09-14 13:00:00,
2013-09-14 09:05:00,57.2,49.3,29.96,NNW,330,8.0,8.0,75,0.00,,,0.00,Wunderground v.1.15,2013-09-14 13:05:00,
2013-09-14 09:10:00,57.4,49.2,29.97,NW,311,8.0,10.0,74,0.00,,,0.00,Wunderground v.1.15,2013-09-14 13:10:00,
2013-09-14 09:20:00,57.5,48.9,29.97,NW,311,8.0,9.0,73,0.00,,,0.00,Wunderground v.1.15,2013-09-14 13:20:00,
2013-09-14 09:25:00,57.6,49.0,29.97,NW,319,8.0,12.0,73,0.00,,,0.00,Wunderground v.1.15,2013-09-14 13:25:00,
2013-09-14 09:30:00,57.7,49.1,29.97,North,9,9.0,9.0,73,0.00,,,0.00,Wunderground v.1.15,2013-09-14 13:30:00,
2013-09-14 09:35:00,58.1,49.9,29.97,NW,322,9.0,9.0,74,0.00,,,0.00,Wunderground v.1.15,2013-09-14 13:35:00,
2013-09-14 09:45:00,58.5,49.9,29.97,NNE,20,7.0,8.0,73,0.00,,,0.00,Wunderground v.1.15,2013-09-14 13:45:00,
2013-09-14 09:50:00,58.6,49.6,29.97,NW,311,7.0,11.0,72,0.00,,,0.00,Wunderground v.1.15,2013-09-14 13:50:00,
2013-09-14 09:55:00,58.7,49.3,29.97,NNW,330,6.0,11.0,71,0.00,,,0.00,Wunderground v.1.15,2013-09-14 13:55:00,
2013-09-14 10:05:00,58.8,49.4,29.97,NNE,22,7.0,8.0,71,0.00,,,0.00,Wunderground v.1.15,2013-09-14 14:05:00,
2013-09-14 10:10:00,59.2,49.4,29.97,NW,319,7.0,7.0,70,0.00,,,0.00,Wunderground v.1.15,2013-09-14 14:10:00,
2013-09-14 10:15:00,59.4,50.0,29.97,NNW,328,7.0,7.0,71,0.00,,,0.00,Wunderground v.1.15,2013-09-14 14:15:00,
2013-09-14 10:20:00,59.5,49.7,29.97,NNE,25,6.0,8.0,70,0.00,,,0.00,Wunderground v.1.15,2013-09-14 14:20:00,
2013-09-14 10:25:00,59.7,49.5,29.97,NW,304,7.0,8.0,69,0.00,,,0.00,Wunderground v.1.15,2013-09-14 14:25:00,
2013-09-14 10:30:00,60.0,49.8,29.97,NNW,336,6.0,6.0,69,0.00,,,0.00,Wunderground v.1.15,2013-09-14 14:30:00,
2013-09-14 10:35:00,60.0,49.4,29.97,NNW,327,5.0,8.0,68,0.00,,,0.00,Wunderground v.1.15,2013-09-14 14:35:00,
2013-09-14 10:40:00,59.8,48.8,29.97,NW,318,6.0,7.0,67,0.00,,,0.00,Wunderground v.1.15,2013-09-14 14:40:00,
2013-09-14 10:50:00,60.4,49.4,29.97,NW,315,6.0,6.0,67,0.00,,,0.00,Wunderground v.1.15,2013-09-14 14:50:00,
2013-09-14 10:55:00,60.6,49.6,29.97,NNW,328,6.0,6.0,67,0.00,,,0.00,Wunderground v.1.15,2013-09-14 14:55:00,
2013-09-14 11:00:00,60.8,49.8,29.97,WNW,288,5.0,5.0,67,0.00,,,0.00,Wunderground v.1.15,2013-09-14 15:00:00,
2013-09-14 11:05:00,61.2,49.7,29.97,North,4,5.0,6.0,66,0.00,,,0.00,Wunderground v.1.15,2013-09-14 15:05:00,
2013-09-14 11:10:00,61.7,50.2,29.97,NNW,338,5.0,6.0,66,0.00,,,0.00,Wunderground v.1.15,2013-09-14 15:10:00,
2013-09-14 11:15:00,61.7,50.6,29.97,North,5,6.0,8.0,67,0.00,,,0.00,Wunderground v.1.15,2013-09-14 15:15:00,
2013-09-14 11:25:00,61.6,49.3,29.97,WSW,257,6.0,10.0,64,0.00,,,0.00,Wunderground v.1.15,2013-09-14 15:25:00,
2013-09-14 11:35:00,61.6,49.3,29.97,NNE,15,7.0,7.0,64,0.00,,,0.00,Wunderground v.1.15,2013-09-14 15:35:00,
2013-09-14 11:40:00,61.9,49.2,29.97,NW,304,7.0,7.0,63,0.00,,,0.00,Wunderground v.1.15,2013-09-14 15:40:00,
2013-09-14 11:45:00,62.2,49.4,29.97,NW,308,6.0,7.0,63,0.00,,,0.00,Wunderground v.1.15,2013-09-14 15:45:00,
2013-09-14 11:50:00,62.5,49.7,29.97,NW,312,4.0,5.0,63,0.00,,,0.00,Wunderground v.1.15,2013-09-14 15:50:00,
2013-09-14 11:55:00,62.6,49.8,29.97,NNE,15,4.0,5.0,63,0.00,,,0.00,Wunderground v.1.15,2013-09-14 15:55:00,
2013-09-14 12:00:00,62.8,50.4,29.97,North,357,5.0,6.0,64,0.00,,,0.00,Wunderground v.1.15,2013-09-14 16:00:00,
2013-09-14 12:05:00,63.4,50.6,29.97,NW,314,5.0,6.0,63,0.00,,,0.00,Wunderground v.1.15,2013-09-14 16:05:00,
2013-09-14 12:15:00,63.7,50.9,29.98,NNW,330,4.0,5.0,63,0.00,,,0.00,Wunderground v.1.15,2013-09-14 16:15:00,
2013-09-14 12:20:00,63.9,50.2,29.98,North,8,3.0,3.0,61,0.00,,,0.00,Wunderground v.1.15,2013-09-14 16:20:00,
2013-09-14 12:25:00,64.2,50.5,29.97,NW,325,3.0,6.0,61,0.00,,,0.00,Wunderground v.1.15,2013-09-14 16:25:00,
2013-09-14 12:30:00,64.1,49.9,29.98,NNE,29,4.0,11.0,60,0.00,,,0.00,Wunderground v.1.15,2013-09-14 16:30:00,
2013-09-14 12:35:00,64.3,51.0,29.98,North,350,6.0,11.0,62,0.00,,,0.00,Wunderground v.1.15,2013-09-14 16:35:00,
2013-09-14 12:40:00,64.2,50.5,29.98,WNW,294,6.0,6.0,61,0.00,,,0.00,Wunderground v.1.15,2013-09-14 16:40:00,
2013-09-14 12:45:00,64.2,50.0,29.98,NNW,336,4.0,6.0,60,0.00,,,0.00,Wunderground v.1.15,2013-09-14 16:45:00,
2013-09-14 12:50:00,64.6,51.3,29.98,NNE,19,3.0,3.0,62,0.00,,,0.00,Wunderground v.1.15,2013-09-14 16:50:00,
2013-09-14 13:00:00,64.8,51.0,29.98,NW,323,5.0,6.0,61,0.00,,,0.00,Wunderground v.1.15,2013-09-14 17:00:00,
2013-09-14 13:10:00,65.2,51.0,29.98,WSW,255,4.0,4.0,60,0.00,,,0.00,Wunderground v.1.15,2013-09-14 17:10:00,
2013-09-14 13:15:00,64.8,50.1,29.98,NNW,333,6.0,6.0,59,0.00,,,0.00,Wunderground v.1.15,2013-09-14 17:15:00,
2013-09-14 13:20:00,64.7,50.5,29.98,WNW,297,6.0,6.0,60,0.00,,,0.00,Wunderground v.1.15,2013-09-14 17:20:00,
2013-09-14 13:25:00,64.9,49.8,29.98,NW,322,4.0,6.0,58,0.00,,,0.00,Wunderground v.1.15,2013-09-14 17:25:00,
2013-09-14 13:30:00,65.2,50.5,29.98,NW,322,3.0,3.0,59,0.00,,,0.00,Wunderground v.1.15,2013-09-14 17:30:00,
2013-09-14 13:35:00,65.0,49.9,29.98,NNW,339,5.0,5.0,58,0.00,,,0.00,Wunderground v.1.15,2013-09-14 17:35:00,
2013-09-14 13:40:00,64.8,51.0,29.98,WNW,299,6.0,6.0,61,0.00,,,0.00,Wunderground v.1.15,2013-09-14 17:40:00,
2013-09-14 13:50:00,64.9,50.2,29.98,NW,307,6.0,8.0,59,0.00,,,0.00,Wunderground v.1.15,2013-09-14 17:50:00,
2013-09-14 13:55:00,65.0,51.2,29.98,North,349,7.0,8.0,61,0.00,,,0.00,Wunderground v.1.15,2013-09-14 17:55:00,
2013-09-14 14:00:00,65.5,50.8,29.97,WNW,288,5.0,5.0,59,0.00,,,0.00,Wunderground v.1.15,2013-09-14 18:00:00,
2013-09-14 14:05:00,65.8,51.5,29.97,NW,318,4.0,5.0,60,0.00,,,0.00,Wunderground v.1.15,2013-09-14 18:05:00,
2013-09-14 14:10:00,65.8,51.5,29.97,NW,325,5.0,7.0,60,0.00,,,0.00,Wunderground v.1.15,2013-09-14 18:10:00,
2013-09-14 14:15:00,65.3,50.1,29.97,NW,309,7.0,7.0,58,0.00,,,0.00,Wunderground v.1.15,2013-09-14 18:15:00,
2013-09-14 14:20:00,65.0,50.8,29.97,NNW,341,6.0,7.0,60,0.00,,,0.00,Wunderground v.1.15,2013-09-14 18:20:00,
2013-09-14 14:25:00,65.2,51.0,29.97,NW,318,6.0,7.0,60,0.00,,,0.00,Wunderground v.1.15,2013-09-14 18:25:00,
2013-09-14 14:35:00,65.4,50.2,29.97,NW,317,6.0,7.0,58,0.00,,,0.00,Wunderground v.1.15,2013-09-14 18:35:00,
2013-09-14 14:40:00,65.9,51.6,29.97,WNW,299,5.0,5.0,60,0.00,,,0.00,Wunderground v.1.15,2013-09-14 18:40:00,
2013-09-14 14:45:00,66.2,50.5,29.97,NNW,346,5.0,9.0,57,0.00,,,0.00,Wunderground v.1.15,2013-09-14 18:45:00,
2013-09-14 14:50:00,66.1,50.4,29.97,North,355,6.0,9.0,57,0.00,,,0.00,Wunderground v.1.15,2013-09-14 18:50:00,
2013-09-14 14:55:00,65.7,50.5,29.97,NW,317,6.0,9.0,58,0.00,,,0.00,Wunderground v.1.15,2013-09-14 18:55:00,
2013-09-14 15:00:00,65.9,50.2,29.97,NNW,330,5.0,9.0,57,0.00,,,0.00,Wunderground v.1.15,2013-09-14 19:00:00,
2013-09-14 15:05:00,66.2,51.4,29.98,NNW,336,5.0,9.0,59,0.00,,,0.00,Wunderground v.1.15,2013-09-14 19:05:00,
2013-09-14 15:10:00,66.4,50.2,29.98,NW,319,6.0,6.0,56,0.00,,,0.00,Wunderground v.1.15,2013-09-14 19:10:00,
2013-09-14 15:20:00,67.1,50.9,29.98,West,270,4.0,4.0,56,0.00,,,0.00,Wunderground v.1.15,2013-09-14 19:20:00,
2013-09-14 15:25:00,67.1,50.9,29.98,WNW,288,4.0,4.0,56,0.00,,,0.00,Wunderground v.1.15,2013-09-14 19:25:00,
2013-09-14 15:30:00,67.2,52.4,29.98,WNW,291,4.0,9.0,59,0.00,,,0.00,Wunderground v.1.15,2013-09-14 19:30:00,
2013-09-14 15:35:00,66.2,51.4,29.99,WNW,302,6.0,9.0,59,0.00,,,0.00,Wunderground v.1.15,2013-09-14 19:35:00,
2013-09-14 15:40:00,65.4,51.1,29.98,NNW,343,8.0,12.0,60,0.00,,,0.00,Wunderground v.1.15,2013-09-14 19:40:00,
2013-09-14 15:45:00,65.0,50.8,29.99,NW,310,8.0,12.0,60,0.00,,,0.00,Wunderground v.1.15,2013-09-14 19:45:00,
2013-09-14 15:50:00,64.9,51.1,29.99,NW,322,7.0,7.0,61,0.00,,,0.00,Wunderground v.1.15,2013-09-14 19:50:00,
2013-09-14 16:00:00,64.6,50.8,29.99,NW,316,7.0,7.0,61,0.00,,,0.00,Wunderground v.1.15,2013-09-14 20:00:00,
2013-09-14 16:05:00,64.6,50.8,29.99,WNW,285,7.0,7.0,61,0.00,,,0.00,Wunderground v.1.15,2013-09-14 20:05:00,
2013-09-14 16:10:00,64.8,51.0,29.99,West,280,5.0,5.0,61,0.00,,,0.00,Wunderground v.1.15,2013-09-14 20:10:00,
2013-09-14 16:15:00,64.6,50.8,29.99,NNW,328,4.0,5.0,61,0.00,,,0.00,Wunderground v.1.15,2013-09-14 20:15:00,
2013-09-14 16:20:00,64.5,50.7,29.99,NW,306,6.0,6.0,61,0.00,,,0.00,Wunderground v.1.15,2013-09-14 20:20:00,
2013-09-14 16:25:00,64.5,50.7,30.00,NW,325,7.0,9.0,61,0.00,,,0.00,Wunderground v.1.15,2013-09-14 20:25:00,
2013-09-14 16:30:00,64.6,50.8,30.00,North,352,7.0,7.0,61,0.00,,,0.00,Wunderground v.1.15,2013-09-14 20:30:00,
2013-09-14 16:35:00,64.5,51.6,30.00,NW,319,7.0,9.0,63,0.00,,,0.00,Wunderground v.1.15,2013-09-14 20:35:00,
2013-09-14 16:45:00,64.0,51.1,30.00,NW,305,7.0,9.0,63,0.00,,,0.00,Wunderground v.1.15,2013-09-14 20:45:00,
2013-09-14 16:50:00,64.1,51.2,30.01,NW,312,6.0,6.0,63,0.00,,,0.00,Wunderground v.1.15,2013-09-14 20:50:00,
2013-09-14 16:55:00,63.9,51.1,30.00,WNW,299,6.0,6.0,63,0.00,,,0.00,Wunderground v.1.15,2013-09-14 20:55:00,
2013-09-14 17:00:00,64.1,51.7,30.01,NW,320,7.0,7.0,64,0.00,,,0.00,Wunderground v.1.15,2013-09-14 21:00:00,
2013-09-14 17:05:00,64.6,52.6,30.01,WNW,300,6.0,7.0,65,0.00,,,0.00,Wunderground v.1.15,2013-09-14 21:05:00,
2013-09-14 17:10:00,64.2,51.8,30.01,NW,319,7.0,7.0,64,0.00,,,0.00,Wunderground v.1.15,2013-09-14 21:10:00,
2013-09-14 17:15:00,63.9,51.5,30.01,NW,311,7.0,7.0,64,0.00,,,0.00,Wunderground v.1.15,2013-09-14 21:15:00,
2013-09-14 17:20:00,63.7,51.7,30.02,West,270,6.0,6.0,65,0.00,,,0.00,Wunderground v.1.15,2013-09-14 21:20:00,
2013-09-14 17:30:00,63.3,51.3,30.02,WNW,302,4.0,4.0,65,0.00,,,0.00,Wunderground v.1.15,2013-09-14 21:30:00,
2013-09-14 17:35:00,63.1,51.1,30.02,West,280,5.0,5.0,65,0.00,,,0.00,Wunderground v.1.15,2013-09-14 21:35:00,
2013-09-14 17:45:00,63.2,51.6,30.02,NW,316,4.0,5.0,66,0.00,,,0.00,Wunderground v.1.15,2013-09-14 21:45:00,
2013-09-14 17:50:00,63.2,51.6,30.02,WNW,288,3.0,3.0,66,0.00,,,0.00,Wunderground v.1.15,2013-09-14 21:50:00,
2013-09-14 17:55:00,63.0,51.5,30.02,NNW,327,2.0,3.0,66,0.00,,,0.00,Wunderground v.1.15,2013-09-14 21:55:00,
2013-09-14 18:00:00,63.0,51.0,30.02,NW,307,2.0,6.0,65,0.00,,,0.00,Wunderground v.1.15,2013-09-14 22:00:00,
2013-09-14 18:10:00,63.2,52.1,30.03,NW,316,4.0,4.0,67,0.00,,,0.00,Wunderground v.1.15,2013-09-14 22:10:00,
2013-09-14 18:15:00,63.2,51.6,30.03,NW,309,4.0,6.0,66,0.00,,,0.00,Wunderground v.1.15,2013-09-14 22:15:00,
2013-09-14 18:20:00,62.9,51.4,30.03,WNW,302,5.0,5.0,66,0.00,,,0.00,Wunderground v.1.15,2013-09-14 22:20:00,
2013-09-14 18:25:00,62.8,51.3,30.03,West,274,5.0,5.0,66,0.00,,,0.00,Wunderground v.1.15,2013-09-14 22:25:00,
2013-09-14 18:30:00,62.7,52.0,30.03,NW,322,3.0,3.0,68,0.00,,,0.00,Wunderground v.1.15,2013-09-14 22:30:00,
2013-09-14 18:35:00,62.6,51.9,30.03,WNW,297,3.0,3.0,68,0.00,,,0.00,Wunderground v.1.15,2013-09-14 22:35:00,
2013-09-14 18:40:00,62.3,52.4,30.04,WNW,294,3.0,3.0,70,0.00,,,0.00,Wunderground v.1.15,2013-09-14 22:40:00,
2013-09-14 18:45:00,62.2,51.9,30.04,WNW,296,3.0,4.0,69,0.00,,,0.00,Wunderground v.1.15,2013-09-14 22:45:00,
2013-09-14 18:50:00,62.0,52.5,30.04,NW,315,2.0,2.0,71,0.00,,,0.00,Wunderground v.1.15,2013-09-14 22:50:00,
2013-09-14 19:00:00,61.4,52.3,30.04,WNW,302,2.0,3.0,72,0.00,,,0.00,Wunderground v.1.15,2013-09-14 23:00:00,
2013-09-14 19:05:00,61.2,52.1,30.04,WNW,300,2.0,3.0,72,0.00,,,0.00,Wunderground v.1.15,2013-09-14 23:05:00,
2013-09-14 19:10:00,61.0,52.3,30.04,WNW,290,2.0,3.0,73,0.00,,,0.00,Wunderground v.1.15,2013-09-14 23:10:00,
2013-09-14 19:15:00,60.8,52.5,30.04,NW,322,1.0,3.0,74,0.00,,,0.00,Wunderground v.1.15,2013-09-14 23:15:00,
2013-09-14 19:20:00,60.6,52.3,30.05,WNW,299,1.0,2.0,74,0.00,,,0.00,Wunderground v.1.15,2013-09-14 23:20:00,
2013-09-14 19:25:00,60.4,52.1,30.05,WNW,297,2.0,4.0,74,0.00,,,0.00,Wunderground v.1.15,2013-09-14 23:25:00,
2013-09-14 19:30:00,60.3,52.3,30.05,WNW,302,2.0,2.0,75,0.00,,,0.00,Wunderground v.1.15,2013-09-14 23:30:00,
2013-09-14 19:35:00,60.1,52.1,30.05,NW,308,3.0,3.0,75,0.00,,,0.00,Wunderground v.1.15,2013-09-14 23:35:00,
2013-09-14 19:45:00,59.7,51.8,30.06,NNW,327,3.0,6.0,75,0.00,,,0.00,Wunderground v.1.15,2013-09-14 23:45:00,
2013-09-14 19:50:00,59.5,51.6,30.06,WNW,291,4.0,4.0,75,0.00,,,0.00,Wunderground v.1.15,2013-09-14 23:50:00,
2013-09-14 19:55:00,59.3,51.4,30.06,NW,316,4.0,4.0,75,0.00,,,0.00,Wunderground v.1.15,2013-09-14 23:55:00,
2013-09-14 20:00:00,59.0,51.1,30.07,NNW,330,4.0,4.0,75,0.00,,,0.00,Wunderground v.1.15,2013-09-15 00:00:00,
2013-09-14 20:05:00,58.8,50.9,30.07,WNW,294,4.0,4.0,75,0.00,,,0.00,Wunderground v.1.15,2013-09-15 00:05:00,
2013-09-14 20:10:00,58.6,50.3,30.07,WNW,300,4.0,4.0,74,0.00,,,0.00,Wunderground v.1.15,2013-09-15 00:10:00,
2013-09-14 20:15:00,58.4,50.1,30.07,NW,311,4.0,5.0,74,0.00,,,0.00,Wunderground v.1.15,2013-09-15 00:15:00,
2013-09-14 20:20:00,58.3,50.4,30.08,NW,312,4.0,4.0,75,0.00,,,0.00,Wunderground v.1.15,2013-09-15 00:20:00,
2013-09-14 20:30:00,57.9,50.4,30.08,WNW,299,4.0,5.0,76,0.00,,,0.00,Wunderground v.1.15,2013-09-15 00:30:00,
2013-09-14 20:40:00,57.6,50.1,30.09,NW,304,4.0,4.0,76,0.00,,,0.00,Wunderground v.1.15,2013-09-15 00:40:00,
2013-09-14 20:45:00,57.5,50.0,30.09,NW,314,3.0,6.0,76,0.00,,,0.00,Wunderground v.1.15,2013-09-15 00:45:00,
2013-09-14 20:50:00,57.3,49.8,30.09,NW,311,4.0,4.0,76,0.00,,,0.00,Wunderground v.1.15,2013-09-15 00:50:00,
2013-09-14 20:55:00,57.2,49.7,30.09,NW,314,5.0,8.0,76,0.00,,,0.00,Wunderground v.1.15,2013-09-15 00:55:00,
2013-09-14 21:00:00,57.1,49.6,30.09,NW,311,5.0,5.0,76,0.00,,,0.00,Wunderground v.1.15,2013-09-15 01:00:00,
2013-09-14 21:10:00,56.8,49.3,30.10,WNW,302,5.0,6.0,76,0.00,,,0.00,Wunderground v.1.15,2013-09-15 01:10:00,
2013-09-14 21:20:00,56.6,49.1,30.10,WNW,300,5.0,5.0,76,0.00,,,0.00,Wunderground v.1.15,2013-09-15 01:20:00,
2013-09-14 21:25:00,56.4,48.9,30.10,NW,319,5.0,5.0,76,0.00,,,0.00,Wunderground v.1.15,2013-09-15 01:25:00,
2013-09-14 21:30:00,56.2,49.1,30.11,NW,313,4.0,5.0,77,0.00,,,0.00,Wunderground v.1.15,2013-09-15 01:30:00,
2013-09-14 21:35:00,56.1,49.3,30.11,NW,325,4.0,5.0,78,0.00,,,0.00,Wunderground v.1.15,2013-09-15 01:35:00,
2013-09-14 21:40:00,55.9,49.1,30.11,WNW,297,3.0,4.0,78,0.00,,,0.00,Wunderground v.1.15,2013-09-15 01:40:00,
2013-09-14 21:45:00,55.7,49.3,30.11,WNW,302,3.0,4.0,79,0.00,,,0.00,Wunderground v.1.15,2013-09-15 01:45:00,
2013-09-14 21:50:00,55.5,49.1,30.11,NW,311,3.0,4.0,79,0.00,,,0.00,Wunderground v.1.15,2013-09-15 01:50:00,
2013-09-14 22:00:00,55.3,48.9,30.11,NNW,332,2.0,3.0,79,0.00,,,0.00,Wunderground v.1.15,2013-09-15 02:00:00,
2013-09-14 22:05:00,55.1,49.0,30.11,NW,304,2.0,3.0,80,0.00,,,0.00,Wunderground v.1.15,2013-09-15 02:05:00,
2013-09-14 22:10:00,54.9,49.2,30.11,WNW,300,1.0,1.0,81,0.00,,,0.00,Wunderground v.1.15,2013-09-15 02:10:00,
2013-09-14 22:15:00,54.7,49.3,30.11,WNW,288,1.0,1.0,82,0.00,,,0.00,Wunderground v.1.15,2013-09-15 02:15:00,
2013-09-14 22:20:00,54.5,49.4,30.11,NW,319,1.0,1.0,83,0.00,,,0.00,Wunderground v.1.15,2013-09-15 02:20:00,
2013-09-14 22:25:00,54.2,49.1,30.11,WNW,297,1.0,1.0,83,0.00,,,0.00,Wunderground v.1.15,2013-09-15 02:25:00,
2013-09-14 22:30:00,54.0,49.3,30.11,NW,304,0.0,1.0,84,0.00,,,0.00,Wunderground v.1.15,2013-09-15 02:30:00,
2013-09-14 22:40:00,53.8,49.1,30.11,NW,309,2.0,5.0,84,0.00,,,0.00,Wunderground v.1.15,2013-09-15 02:40:00,
2013-09-14 22:45:00,53.7,49.0,30.10,WNW,283,3.0,5.0,84,0.00,,,0.00,Wunderground v.1.15,2013-09-15 02:45:00,
2013-09-14 22:50:00,53.7,49.0,30.11,NW,311,3.0,3.0,84,0.00,,,0.00,Wunderground v.1.15,2013-09-15 02:50:00,
2013-09-14 22:55:00,53.6,48.6,30.11,WNW,300,3.0,3.0,83,0.00,,,0.00,Wunderground v.1.15,2013-09-15 02:55:00,
2013-09-14 23:00:00,53.6,48.9,30.11,West,264,3.0,3.0,84,0.00,,,0.00,Wunderground v.1.15,2013-09-15 03:00:00,
2013-09-14 23:05:00,53.4,48.4,30.11,West,277,2.0,3.0,83,0.00,,,0.00,Wunderground v.1.15,2013-09-15 03:05:00,
2013-09-14 23:15:00,53.3,47.9,30.11,NW,312,3.0,3.0,82,0.00,,,0.00,Wunderground v.1.15,2013-09-15 03:15:00,
2013-09-14 23:20:00,53.3,47.9,30.11,NW,311,4.0,5.0,82,0.00,,,0.00,Wunderground v.1.15,2013-09-15 03:20:00,
2013-09-14 23:25:00,53.3,47.6,30.11,NW,304,5.0,5.0,81,0.00,,,0.00,Wunderground v.1.15,2013-09-15 03:25:00,
2013-09-14 23:30:00,53.3,47.6,30.11,NW,309,5.0,5.0,81,0.00,,,0.00,Wunderground v.1.15,2013-09-15 03:30:00,
2013-09-14 23:35:00,53.2,47.5,30.11,WNW,288,5.0,5.0,81,0.00,,,0.00,Wunderground v.1.15,2013-09-15 03:35:00,
2013-09-14 23:40:00,53.1,47.4,30.11,NW,307,4.0,4.0,81,0.00,,,0.00,Wunderground v.1.15,2013-09-15 03:40:00,
2013-09-14 23:45:00,53.0,47.7,30.11,WNW,294,3.0,4.0,82,0.00,,,0.00,Wunderground v.1.15,2013-09-15 03:45:00,
2013-09-14 23:50:00,52.9,47.2,30.11,WNW,302,3.0,3.0,81,0.00,,,0.00,Wunderground v.1.15,2013-09-15 03:50:00,